STARLINK-2505, 48411

Orbit data source: Space-Track

STARLINK-2505, 48411 is a payload satellite owned by SpaceX/Seattle (US) in LEO that was launched on Tue, 04 May 2021 UTC via an FALCON 9 launch vehicle from the Air Force Eastern Test Range (AFETR). Payload-class satellites include a variety of spacecraft equipped with specific instruments for various scientific and technological missions. These include communications satellites like Starlink; space stations such as the ISS; scientific satellites like the Hubble; Earth observation satellites from companies like Planet Labs, Umbra, and HawkEye 360; GPS; miniature CubeSats for education and research; and military/defense satellites.

Loading next visibility...
Identifier
48411, 2021-038BL
Orbit
LEO
Country
Flag of USUS
Related business
Manufacturer
SpaceX/Seattle
Mission
Operational Commercial Communications
Bus & Motor
STARLINK, Unknown motor
Mass
260 kg wet, ~248 kg dry
Launch date (UTC)
2021-05-04 (5 years ago)
Launch vehicle
FALCON 9
Launch site
Air Force Eastern Test Range (AFETR)
Object type
Payload
Rocket body
Debris
Shape & HBR
Box + 1 Pan, 10.1 m
Radar Cross Section
13.562 m², Large (>1 m²)

Expand to show TLE details & history
Last TLE update: 2 days ago

TLE from 2 days ago
0 STARLINK-2505
1 48411U 21038BL  26171.39520413  .00000122  00000-0  15706-4 0  9994
2 48411  53.1583 176.0485 0001131  89.0982 271.0149 15.31697316283715
Epoch: 2026-06-20T09:29Z
TLE epoch observation values (Epoch: 2026-06-20T09:29:05.636Z)
Latitude
-0.00004°
Longitude
125.16454°
Altitude
471.634 km
Speed
7.631 km/s
True Right ascension
11h 44m 11s
True Declination
0° 00' 00"
Sunlit
Object was in daylight at epoch
Visualization orbit readout
Latitude
Unknown
Longitude
Unknown
Altitude
Unknown
Speed
Unknown
Apparent Right ascension
Unknown
Apparent Declination
Unknown
Sunlit
N/A
Visualization observer readout
Local Sidereal Time
21:25:04
Azimuth
Unknown
Elevation
Unknown
Doppler factor
Unknown
Orbital elements
Apogee altitude
471.78 km
Perigee altitude
470.23 km
Semi-major axis
6,849.142 km
Eccentricity
0.00011
Inclination
53.1583°
RAAN
176.0485°
Arg. of periapsis
89.0982°
True anomaly
271.00194°
Mean anomaly
271.0149°
Eccentric anomaly
271.00842°
Mean motion
3.82903 °/min
Orbital period
94.02 mins
BSTAR
0.000015706
Loading maneuver chart data...
Computing Atmospheric mass density...

Documentation

Showing up to 5 results
|